Temp_Advection
nan nan nan nan nan nan nan nan nan nan nan nan nan nan nan nan nan nan nan nan nan nan nan nan nan nan nan nan nan nan nan nan nan nan nan nan nan nan nan nan nan nan nan nan nan nan nan nan nan
nan 0 0 -0 -0 0 -0 -0 -0 -0 -1 -0 0 -0 0 -0 -0 0 -0 0 0 -0 -1 0 1 0 0 0 -0 -0 -0 0 0 0 0 0 0 0 0 0 0 0 0 0 0 0 0 0 nan
nan 0 0 -0 -0 -0 -0 -0 -0 -1 -0 -0 -0 0 0 -0 -0 0 -0 -0 0 0 0 0 0 0 0 0 0 0 -0 0 0 0 0 -0 0 0 0 0 0 0 0 0 0 0 0 0 nan
nan 0 -0 -0 -0 -0 -0 -0 -0 -1 -2 0 0 0 -0 -0 -0 0 0 -0 -0 -0 0 0 0 0 -0 0 0 0 0 0 0 0 0 0 0 0 -0 -0 0 0 0 0 0 0 0 0 nan
nan 0 -0 -0 -0 -0 -0 -1 0 0 -1 -0 -0 0 0 -0 0 0 0 1 0 -0 0 0 -0 0 0 0 0 0 0 0 0 0 0 0 0 0 0 0 0 0 0 0 0 0 0 0 nan
nan -0 -0 -0 -0 -0 -1 -1 -0 -0 0 0 -0 -0 0 0 0 0 0 0 1 1 1 0 0 0 0 0 0 1 1 0 0 0 0 0 0 0 0 0 0 0 0 -0 -0 0 0 0 nan
nan -0 -0 -0 -0 -0 -1 -0 0 -0 -0 0 0 -0 -0 -0 0 0 0 1 0 1 1 1 1 1 1 1 1 1 1 0 0 0 0 0 0 0 0 0 0 0 0 -0 -0 -0 -0 -0 nan
nan -0 0 -0 -0 -1 -1 -0 -0 0 -0 0 0 0 -0 -1 1 1 1 1 1 1 1 1 1 1 1 1 1 1 1 0 0 0 1 0 0 0 0 0 0 0 -0 0 0 -0 -0 -0 nan
nan 0 -0 -0 -0 -1 -1 -0 -1 -1 -0 -0 0 0 0 1 1 0 1 1 1 1 1 1 1 1 1 1 1 1 0 1 1 0 0 0 0 0 0 0 0 -0 -0 0 0 0 0 0 nan
nan -0 -1 -0 -0 -0 -1 -0 -1 -0 -1 -0 0 -0 -0 1 0 0 -0 -0 -1 0 1 1 1 0 0 0 0 0 1 1 1 0 -0 0 0 0 0 0 0 -0 0 0 0 -0 0 0 nan
nan -0 -0 -1 -1 1 0 -1 -1 0 -0 -1 0 0 0 1 0 -0 -0 -1 0 1 1 0 0 0 0 0 0 -0 0 0 0 -0 0 0 0 0 0 0 -0 -0 -0 0 0 0 0 0 nan
nan -0 -0 -0 -0 0 -0 -1 -0 -1 -1 -1 0 0 0 0 -0 0 0 0 1 0 0 0 0 0 0 -0 0 0 -0 0 -0 0 1 0 0 0 0 -0 -0 -0 0 0 0 0 0 0 nan
nan -0 -1 -0 -0 -0 0 0 -1 -1 -1 -1 0 0 0 -0 0 0 1 1 0 0 0 -0 -0 -0 0 0 -0 -0 0 0 1 1 1 0 0 0 0 -0 -0 0 0 0 0 0 0 0 nan
nan -0 -1 -1 -0 -0 -0 -0 -0 -1 -1 -1 -0 1 0 -1 -0 2 1 -1 -1 -1 -1 0 1 0 0 -0 0 1 0 1 2 1 -0 1 1 0 0 0 0 0 0 0 0 0 1 1 nan
nan 0 -0 -0 -0 -0 0 -0 -0 -1 -0 -0 -1 0 0 0 0 -1 -0 -0 -1 1 1 1 0 0 1 1 1 1 1 1 2 2 1 1 0 1 1 0 0 0 0 1 1 1 0 1 nan
nan -0 -0 0 -0 -0 0 -0 -1 -1 -0 -1 -1 -0 -0 -0 -1 -1 0 1 3 1 -0 0 1 1 1 1 2 2 1 2 3 2 0 0 0 0 0 0 0 0 1 1 1 0 0 0 nan
nan 0 -0 -1 -0 -0 0 -0 -1 -2 -0 -1 -3 -2 -2 -2 -2 -2 -2 0 1 3 3 2 1 2 2 2 2 1 1 2 2 1 0 -0 0 0 -0 -0 0 1 1 1 1 1 1 1 nan
nan -0 -0 -0 -0 -0 -0 -0 -1 -1 -0 -0 -2 -3 -2 -2 -2 -1 -1 -0 1 3 1 -1 1 2 3 3 1 1 0 1 1 0 -0 -0 0 0 0 1 0 1 1 1 1 1 1 1 nan
nan 0 -0 -1 -0 -0 -0 -0 -1 -0 -0 -1 -1 -1 -1 -1 -1 -1 -1 -0 0 -0 -1 2 1 1 4 1 -0 0 0 1 1 0 -0 1 1 0 1 1 -0 1 0 1 1 1 1 1 nan
nan 0 -0 -0 -0 -0 -0 -0 -0 1 -0 0 -1 -1 -1 -1 -1 -1 -1 -1 -0 1 -0 0 0 2 1 -1 1 3 1 1 0 0 1 1 0 1 1 -0 1 0 -0 0 1 1 1 0 nan
nan -0 -0 -0 -0 0 -0 -1 1 -0 -0 -1 -1 -1 -0 -0 -0 -0 -1 -2 -2 -0 -0 -0 0 0 0 1 2 0 0 1 -1 -1 0 0 1 1 1 0 1 0 0 0 1 1 0 0 nan
nan -0 -0 0 0 -0 0 -0 -0 1 -1 -0 -0 -0 0 1 1 0 -0 -0 -0 -1 -1 -1 -1 -0 0 1 0 0 1 -1 -1 2 1 1 1 1 1 1 1 0 0 1 1 1 1 1 nan
nan -0 0 0 0 -0 0 -0 -0 -0 -0 0 -0 -0 0 0 0 0 1 1 0 0 0 0 -1 0 1 0 0 1 1 1 1 -0 0 1 1 1 1 1 1 0 1 1 1 1 1 1 nan
nan 0 0 0 0 -0 -1 -0 -0 1 0 -0 -0 -0 0 0 0 0 0 0 0 0 1 1 -0 -0 -1 -0 0 0 0 2 0 -1 -0 0 1 1 2 2 1 1 1 0 1 1 1 1 nan
nan -0 -0 -0 -0 -1 0 0 2 -0 -0 -0 -0 0 0 0 0 0 0 0 -0 -0 -1 -1 0 1 -0 -1 0 1 2 1 -1 1 2 1 2 1 1 2 1 2 1 1 2 1 1 1 nan
nan 0 -0 -0 0 -0 -0 -0 0 -0 0 0 0 0 0 0 -0 -0 0 0 0 -1 -1 -1 -1 -1 -0 -1 -1 0 1 2 2 2 2 2 2 3 3 3 2 1 2 2 1 1 1 1 nan
nan 0 -0 0 0 -0 -0 0 0 -0 -0 0 -0 -0 -0 -0 -0 -0 -0 0 0 0 -0 -0 -1 -1 -0 0 0 -1 -1 0 0 1 0 0 2 2 1 2 1 1 1 1 0 1 1 1 nan
nan -0 -0 -0 -0 -0 -0 0 0 0 0 0 -0 -1 -1 -1 -1 -1 -0 -0 0 1 0 -0 -0 -0 -0 -0 1 1 -0 -0 -0 -1 -0 0 1 -0 1 1 1 1 1 1 1 1 1 2 nan
nan 0 -0 0 0 -0 -1 0 -0 -0 0 0 -0 -0 -1 -2 -2 -1 -1 -0 0 0 0 0 0 -0 0 -0 0 0 -0 -0 0 -0 -0 0 0 1 0 0 1 1 1 1 1 1 2 2 nan
nan nan nan nan nan nan nan nan nan nan nan nan nan nan nan nan nan nan nan nan nan nan nan nan nan nan nan nan nan nan nan nan nan nan nan nan nan nan nan nan nan nan nan nan nan nan nan nan nan
Wind_Speed
7 7 5 4 3 4 3 6 4 7 9 6 19 6 9 8 7 5 5 13 20 37 36 33 34 35 33 31 29 27 25 23 22 21 20 19 19 18 17 17 16 15 14 13 12 12 11 11 10
4 4 1 1 4 2 5 4 6 6 18 24 1 3 3 4 12 4 7 19 20 35 36 35 34 34 33 32 29 27 25 23 22 21 20 19 19 18 17 16 16 15 13 13 13 12 12 12 11
3 2 1 3 3 5 4 3 10 26 35 13 4 2 2 3 8 4 7 20 23 34 35 35 33 32 32 31 29 27 25 24 22 21 20 19 18 17 17 16 16 14 12 11 12 11 11 12 11
2 3 2 3 7 6 4 9 16 15 33 8 11 2 3 4 3 8 18 19 24 30 35 35 33 32 32 31 29 26 25 24 22 21 20 18 18 17 16 15 14 11 9 10 11 11 11 12 11
2 1 1 2 6 5 4 13 18 13 7 9 7 4 3 6 10 9 23 21 25 28 33 33 33 32 32 30 28 27 25 24 22 21 19 18 17 17 16 15 13 11 9 9 11 12 13 13 12
2 2 2 3 7 3 7 16 10 5 11 11 2 7 3 7 10 11 23 21 29 29 33 34 34 33 32 31 29 27 25 24 23 21 20 18 18 17 17 15 13 11 10 11 11 13 14 14 15
4 3 4 5 5 7 5 7 7 7 6 4 3 4 2 11 14 11 20 22 30 32 33 35 36 34 33 31 29 28 26 25 24 22 20 19 19 18 17 15 14 12 11 12 13 14 15 15 14
4 4 3 5 3 9 7 5 9 14 12 7 1 2 4 13 20 18 23 25 31 33 34 36 37 37 35 32 30 28 27 26 24 22 22 21 19 19 17 16 15 14 14 14 14 14 13 13 13
10 2 4 4 3 6 16 5 20 15 14 11 2 4 9 11 22 24 26 27 31 34 35 37 39 38 35 33 31 29 28 27 25 24 23 23 22 21 20 17 16 16 16 15 15 16 15 14 14
5 4 7 8 6 11 17 7 20 7 12 10 7 9 6 10 22 27 31 33 35 36 36 39 39 38 36 34 33 32 30 29 28 27 27 25 22 21 20 19 18 18 17 16 16 16 16 16 16
3 6 5 7 16 21 9 12 15 9 4 15 17 8 7 16 26 29 33 35 32 35 34 38 41 40 38 38 36 34 34 33 31 29 27 24 23 23 23 22 22 22 20 19 19 18 18 17 16
3 8 10 9 17 6 7 22 9 16 19 25 27 17 13 22 28 31 35 35 36 35 34 34 40 41 40 39 39 38 37 36 34 32 29 27 26 25 25 24 23 23 21 20 19 20 19 18 17
5 5 13 17 19 18 17 14 17 23 27 26 26 18 17 22 27 30 34 37 38 37 36 36 38 42 44 42 41 41 40 38 37 35 33 30 28 28 27 26 26 24 22 21 22 22 21 20 18
5 10 15 16 23 20 11 15 7 30 35 31 31 30 24 26 30 33 38 41 42 41 41 38 39 41 44 46 46 46 43 42 40 38 37 34 31 30 30 29 28 27 24 23 22 22 21 21 19
6 7 9 5 8 6 6 6 5 26 30 33 34 35 30 30 33 39 40 43 43 44 44 44 43 44 47 49 48 48 48 46 44 42 40 37 33 31 31 31 31 29 26 25 24 23 23 22 21
6 3 6 0 8 12 4 8 9 19 23 28 32 33 33 28 33 38 41 46 48 48 48 47 48 47 50 50 51 50 49 48 46 45 43 40 36 33 33 33 33 30 29 27 26 26 25 24 22
2 4 5 9 6 6 3 5 9 32 24 21 27 30 28 24 16 30 37 48 51 51 53 51 50 51 52 52 52 50 48 48 47 47 46 43 39 35 35 34 32 32 31 30 29 28 25 25 23
3 3 4 6 6 16 20 12 6 18 23 18 16 18 24 24 25 21 21 34 42 47 49 53 52 50 51 50 52 51 49 49 47 51 48 45 43 39 39 38 35 34 34 32 30 28 26 24 24
5 9 10 12 11 17 17 16 13 13 7 9 15 20 20 20 21 19 21 15 27 38 46 50 55 56 52 50 52 56 57 54 52 52 51 49 48 48 45 43 39 38 37 35 32 30 28 27 26
11 13 15 9 8 6 18 28 6 7 3 8 14 18 18 16 20 23 25 21 12 27 38 46 52 55 55 53 52 54 55 56 56 55 52 49 49 47 46 45 41 40 39 37 35 33 34 31 31
8 9 11 12 9 7 9 26 9 5 10 12 16 17 22 25 26 26 24 25 21 9 27 41 48 53 53 53 47 47 49 54 53 57 56 54 51 50 51 51 46 44 42 41 39 38 37 37 36
8 8 12 8 2 4 3 10 4 11 8 7 12 17 19 23 24 27 29 28 26 23 13 28 43 46 47 52 54 56 56 55 56 58 59 55 51 52 51 47 44 44 42 43 41 40 40 38 40
8 6 5 2 4 4 6 4 3 8 4 2 3 9 13 17 20 21 24 27 28 26 23 13 21 39 45 48 52 59 57 56 49 55 58 59 53 54 51 48 44 45 44 43 42 41 41 41 42
3 4 4 1 3 6 12 10 19 7 5 4 1 9 12 15 19 20 20 19 20 20 18 17 16 14 24 45 48 56 60 56 53 55 54 57 53 55 53 49 47 46 45 45 42 42 40 41 41
3 4 3 3 2 9 4 6 16 3 4 4 1 6 12 15 20 22 22 21 21 24 20 19 18 23 14 18 41 52 57 59 53 51 59 60 60 55 54 49 47 45 43 42 41 38 37 38 39
0 4 4 5 5 4 5 6 5 4 5 3 2 2 9 17 20 20 22 22 24 21 23 23 27 29 25 25 23 27 37 42 37 51 59 60 60 55 53 50 46 44 41 39 39 36 36 36 36
0 3 0 1 2 3 5 6 2 6 4 3 2 7 16 19 21 19 20 19 17 16 18 22 24 25 23 24 31 24 19 26 22 23 29 41 37 38 46 45 40 39 37 37 39 39 39 38 35
3 2 1 1 4 11 7 6 5 6 6 4 5 8 14 27 31 29 28 23 21 17 18 19 22 25 23 21 24 26 24 20 17 20 18 30 32 36 35 35 37 35 34 37 36 35 37 35 31
1 2 2 1 4 5 13 6 3 1 3 4 7 13 27 33 40 36 30 23 21 19 19 20 20 21 18 18 19 7 12 16 17 16 16 26 33 26 27 33 34 30 33 35 35 34 34 34 33
5 6 7 4 6 5 2 9 2 2 3 7 10 20 32 35 35 35 29 25 22 20 18 20 21 22 18 17 15 14 13 14 11 10 14 11 19 25 23 25 29 29 30 31 31 31 36 37 41
Wind_Direction
321 322 336 338 39 59 291 265 285 292 316 330 300 162 178 173 171 210 235 199 190 183 180 182 181 181 184 185 183 180 177 173 170 168 168 167 164 161 157 154 152 150 148 146 142 143 145 145 150
313 305 303 79 90 56 268 249 242 247 288 306 219 11 97 188 200 268 176 180 180 185 181 184 184 181 184 184 182 180 176 173 171 171 172 171 168 165 161 157 154 153 154 154 149 150 151 157 164
297 222 207 102 125 184 225 267 311 308 311 282 242 327 286 242 234 274 195 169 170 187 188 187 184 183 185 184 182 180 177 174 174 174 175 174 173 169 166 163 163 164 157 155 154 152 159 164 169
152 170 87 112 233 249 228 301 292 301 317 16 171 178 253 198 232 217 169 173 179 190 190 188 185 186 186 186 183 182 179 178 178 178 178 177 177 177 176 173 171 173 165 162 157 155 170 171 173
224 171 38 303 265 251 243 261 293 295 263 314 147 182 214 205 185 206 179 180 185 185 193 191 189 190 188 188 186 185 183 183 182 182 183 182 183 182 181 182 185 185 177 168 160 162 179 179 176
299 92 61 265 256 249 276 283 288 284 341 325 111 141 181 189 199 200 189 191 187 188 191 194 193 193 192 190 189 189 188 187 187 188 187 188 188 189 188 190 194 190 183 173 165 167 178 183 179
157 95 217 236 267 304 245 282 299 305 328 356 243 122 227 184 192 210 201 202 194 195 196 197 197 196 196 194 192 193 193 192 193 194 195 195 196 196 196 194 193 192 187 181 171 171 179 180 184
239 117 209 252 226 273 253 316 300 303 297 331 252 262 244 217 191 203 203 202 199 200 201 202 200 198 197 196 196 197 198 197 198 199 201 203 201 201 200 197 194 191 187 176 175 188 202 197 196
249 316 257 261 269 250 298 299 307 305 278 305 223 325 282 273 202 199 198 198 201 205 208 209 205 201 200 199 198 201 203 204 202 202 205 204 201 202 201 200 196 193 186 182 182 191 203 204 206
157 172 242 197 238 282 294 311 298 300 284 299 309 318 292 228 204 204 203 204 203 207 211 213 209 205 203 203 204 204 205 207 207 207 208 204 204 205 203 201 197 194 192 191 193 199 205 203 201
210 210 239 250 270 292 292 304 302 267 295 302 318 316 238 217 210 217 217 218 218 212 211 213 212 211 209 208 208 209 209 210 211 215 208 200 207 207 205 203 199 197 197 199 197 199 204 207 206
249 244 259 273 298 289 295 297 294 265 276 297 302 299 253 222 218 223 225 226 223 221 217 215 212 213 214 215 215 215 215 215 217 215 209 207 210 211 208 206 205 204 203 204 201 198 202 204 206
234 266 312 301 306 297 293 266 275 283 303 310 303 295 259 243 243 240 241 229 229 227 223 218 215 215 217 218 220 221 221 221 221 215 214 212 215 214 211 209 208 210 207 206 203 199 205 207 209
298 309 300 308 304 294 278 294 326 298 304 299 296 290 263 251 248 243 233 229 231 234 229 226 222 219 220 222 224 224 224 226 224 219 218 217 218 218 215 212 210 211 209 209 206 205 208 210 213
298 317 311 254 273 287 318 320 283 308 305 298 297 294 286 267 253 246 254 241 241 237 231 228 227 224 223 223 225 225 225 227 227 224 223 223 222 219 219 216 213 213 211 207 205 206 209 212 212
341 330 307 134 333 287 272 285 281 317 312 302 306 313 305 284 270 261 257 253 246 236 232 231 229 231 227 226 226 226 226 229 229 224 225 227 227 224 223 220 216 214 212 210 210 210 211 212 214
341 251 256 308 227 273 159 303 310 309 307 308 317 322 336 346 340 280 268 255 253 247 237 233 230 231 230 229 229 229 231 233 236 227 226 227 226 225 224 224 216 214 215 213 213 211 214 210 209
234 223 264 257 286 316 302 290 270 301 303 313 1 5 18 15 17 5 277 256 258 256 244 239 235 234 235 232 231 230 233 235 238 230 229 229 224 226 224 221 218 218 218 216 213 214 210 215 209
281 273 262 272 284 300 290 287 300 280 305 43 46 39 36 34 25 21 14 288 251 255 252 246 239 238 233 232 229 230 231 231 233 232 232 231 229 224 221 221 217 220 221 220 216 213 212 203 207
243 261 272 274 258 282 296 288 291 253 123 80 53 37 24 19 22 23 27 18 293 255 262 254 247 241 240 235 237 232 231 234 234 234 234 233 230 229 225 223 224 225 222 220 219 216 207 206 207
263 253 267 269 284 262 290 288 244 49 122 69 57 51 47 38 30 27 27 29 23 281 255 260 256 250 240 237 228 226 228 232 234 237 236 232 232 226 224 224 222 224 223 223 220 220 221 212 204
277 232 251 268 305 274 176 293 235 236 100 51 32 36 34 38 37 35 32 30 27 23 290 263 257 251 237 232 231 229 230 227 238 239 239 235 227 224 221 224 225 227 225 225 226 223 225 225 216
233 230 267 244 210 299 190 247 298 103 168 173 20 26 33 38 36 31 27 21 19 16 22 11 258 258 249 238 227 232 239 238 240 239 237 234 228 224 220 219 221 225 225 228 228 226 225 227 225
266 259 274 258 135 248 244 212 272 234 203 155 9 4 8 10 6 1 357 2 7 11 357 324 12 348 257 251 238 227 240 236 231 238 236 232 226 219 216 218 220 222 223 225 225 226 227 225 229
87 78 310 309 186 244 152 217 240 136 60 116 97 353 359 3 357 351 350 354 338 329 338 2 333 339 336 278 246 238 237 243 246 243 242 230 223 217 217 218 219 220 220 225 223 224 225 224 228
90 164 179 238 253 285 337 255 281 96 119 122 84 48 2 6 352 341 339 339 334 343 339 315 311 317 339 5 312 255 238 235 237 230 234 234 231 225 222 219 219 219 219 220 222 223 224 221 226
115 196 5 286 262 278 243 279 258 162 195 183 293 349 353 346 337 331 323 327 328 342 357 359 350 349 328 306 338 332 290 275 264 252 241 239 230 223 222 218 218 220 218 217 220 222 223 218 215
162 130 96 77 259 257 247 246 255 225 228 208 271 299 328 329 318 312 312 308 313 308 319 321 329 346 352 341 329 316 351 1 303 287 300 283 267 240 236 222 219 221 217 216 219 217 219 227 230
108 172 105 211 172 243 269 260 313 310 307 250 256 295 329 315 311 311 310 296 302 303 309 311 317 327 314 312 345 303 309 337 341 355 335 290 277 262 244 227 217 223 218 215 216 216 218 221 217
200 221 180 169 258 230 202 253 222 181 211 226 257 292 301 309 306 306 307 292 293 307 311 308 300 302 312 321 325 353 322 294 285 313 315 323 288 262 260 246 227 224 223 225 228 227 217 220 225
Height
1508 1507 1507 1508 1519 1522 1527 1515 1499 1494 1487 1482 1479 1477 1476 1474 1479 1493 1470 1469 1474 1480 1485 1489 1493 1496 1500 1505 1508 1509 1511 1512 1514 1516 1518 1520 1521 1523 1524 1526 1527 1529 1530 1531 1532 1534 1534 1535 1535
1508 1507 1507 1508 1526 1537 1527 1503 1499 1491 1485 1481 1480 1477 1474 1474 1472 1470 1469 1469 1474 1481 1485 1489 1493 1495 1499 1503 1506 1508 1510 1512 1514 1516 1519 1521 1522 1523 1525 1526 1527 1529 1530 1531 1533 1534 1534 1534 1535
1507 1507 1508 1513 1529 1534 1518 1498 1494 1481 1477 1479 1477 1477 1476 1474 1474 1472 1471 1472 1474 1480 1485 1490 1494 1497 1501 1503 1504 1507 1509 1512 1514 1516 1518 1520 1522 1523 1525 1526 1527 1529 1531 1532 1532 1533 1533 1534 1535
1507 1508 1509 1517 1521 1513 1506 1498 1490 1485 1473 1471 1474 1479 1478 1475 1474 1475 1475 1477 1479 1483 1487 1490 1494 1497 1500 1504 1505 1507 1508 1511 1513 1516 1517 1519 1521 1523 1525 1526 1527 1529 1531 1532 1533 1533 1532 1534 1536
1507 1506 1515 1520 1515 1505 1497 1492 1490 1486 1480 1476 1475 1479 1478 1476 1476 1477 1478 1478 1480 1483 1487 1491 1493 1496 1499 1503 1505 1506 1508 1511 1513 1515 1517 1519 1520 1522 1524 1526 1527 1528 1530 1532 1533 1532 1532 1533 1536
1507 1508 1523 1528 1513 1500 1494 1490 1488 1485 1478 1476 1476 1478 1479 1477 1478 1478 1479 1480 1482 1483 1485 1490 1494 1496 1498 1501 1504 1506 1508 1510 1512 1514 1516 1518 1520 1521 1523 1525 1527 1528 1530 1531 1533 1533 1532 1533 1535
1507 1512 1520 1514 1510 1503 1492 1487 1486 1483 1479 1477 1476 1477 1477 1476 1478 1480 1481 1482 1483 1484 1486 1487 1491 1495 1497 1499 1502 1505 1507 1509 1511 1514 1515 1517 1519 1521 1522 1523 1525 1528 1529 1531 1532 1532 1532 1533 1536
1505 1506 1512 1510 1506 1502 1486 1486 1485 1484 1478 1476 1475 1478 1478 1474 1476 1477 1479 1481 1484 1485 1486 1488 1490 1492 1495 1497 1501 1503 1506 1507 1509 1512 1514 1516 1518 1519 1521 1523 1524 1526 1528 1530 1532 1532 1532 1534 1535
1502 1512 1517 1510 1503 1494 1486 1486 1482 1481 1478 1475 1476 1475 1476 1475 1476 1476 1478 1480 1483 1484 1486 1488 1488 1491 1494 1497 1499 1502 1505 1507 1507 1509 1512 1514 1516 1518 1519 1522 1523 1525 1527 1529 1530 1531 1531 1533 1534
1499 1510 1504 1497 1494 1489 1485 1487 1484 1480 1476 1474 1473 1473 1472 1472 1474 1474 1475 1474 1476 1479 1482 1485 1488 1489 1493 1495 1497 1499 1502 1505 1505 1506 1508 1512 1514 1516 1519 1520 1522 1524 1526 1527 1529 1530 1530 1531 1533
1496 1500 1492 1491 1489 1486 1483 1481 1482 1480 1479 1476 1473 1472 1470 1470 1470 1470 1472 1472 1470 1472 1477 1479 1483 1487 1488 1490 1493 1497 1499 1501 1503 1504 1505 1509 1512 1514 1516 1518 1520 1521 1524 1526 1527 1528 1529 1530 1532
1497 1491 1489 1486 1486 1484 1483 1479 1476 1476 1476 1475 1474 1472 1469 1467 1466 1465 1465 1467 1470 1471 1473 1475 1478 1482 1485 1488 1489 1491 1494 1496 1498 1499 1502 1505 1508 1510 1513 1515 1518 1520 1522 1524 1526 1527 1528 1529 1531
1492 1490 1486 1483 1484 1482 1480 1477 1475 1469 1472 1472 1471 1469 1467 1465 1462 1462 1462 1465 1465 1467 1470 1471 1473 1475 1478 1482 1486 1487 1489 1492 1495 1496 1497 1500 1503 1506 1510 1513 1515 1518 1519 1521 1523 1525 1526 1528 1529
1489 1487 1485 1481 1478 1477 1476 1472 1472 1467 1470 1467 1465 1462 1460 1459 1458 1457 1456 1458 1460 1462 1462 1463 1466 1470 1472 1473 1475 1477 1482 1486 1490 1493 1493 1495 1499 1503 1506 1508 1511 1514 1516 1518 1521 1523 1525 1526 1528
1487 1488 1482 1477 1475 1474 1472 1474 1471 1466 1464 1460 1456 1454 1453 1451 1451 1450 1448 1446 1448 1451 1456 1459 1461 1462 1463 1464 1466 1468 1471 1475 1480 1486 1490 1492 1495 1499 1502 1505 1507 1510 1513 1515 1517 1520 1522 1524 1525
1489 1489 1492 1474 1473 1469 1473 1478 1467 1466 1462 1455 1450 1447 1444 1443 1441 1441 1441 1438 1440 1445 1447 1450 1453 1456 1458 1459 1461 1465 1467 1468 1473 1476 1483 1488 1492 1497 1501 1501 1503 1507 1510 1512 1514 1515 1519 1522 1523
1494 1500 1494 1483 1471 1472 1471 1474 1466 1463 1457 1453 1447 1444 1441 1440 1439 1439 1437 1436 1433 1434 1439 1441 1444 1446 1450 1456 1459 1463 1465 1466 1467 1470 1473 1480 1486 1490 1495 1500 1501 1503 1505 1508 1510 1512 1515 1518 1521
1498 1499 1492 1489 1471 1469 1466 1468 1465 1460 1454 1451 1449 1446 1443 1442 1439 1436 1434 1435 1435 1438 1442 1441 1439 1442 1445 1452 1455 1458 1459 1462 1461 1463 1467 1473 1478 1482 1487 1493 1497 1499 1500 1504 1507 1510 1512 1516 1520
1486 1488 1493 1483 1476 1468 1462 1460 1458 1454 1452 1450 1449 1448 1443 1439 1438 1435 1432 1430 1430 1431 1431 1432 1437 1436 1435 1439 1442 1446 1445 1448 1452 1455 1458 1464 1471 1473 1478 1486 1487 1492 1494 1498 1503 1506 1509 1512 1515
1482 1483 1483 1478 1473 1472 1464 1445 1454 1451 1455 1452 1449 1448 1445 1440 1435 1432 1429 1428 1429 1430 1430 1431 1431 1430 1432 1432 1433 1438 1441 1446 1446 1446 1450 1456 1461 1467 1472 1477 1480 1487 1489 1493 1496 1501 1503 1505 1509
1480 1482 1479 1480 1474 1470 1468 1440 1450 1453 1453 1454 1451 1450 1446 1443 1439 1434 1429 1427 1425 1426 1427 1424 1425 1426 1426 1429 1437 1438 1437 1437 1441 1441 1442 1444 1450 1456 1461 1466 1469 1476 1481 1486 1488 1493 1498 1499 1503
1483 1471 1470 1474 1478 1488 1468 1467 1452 1444 1454 1457 1454 1451 1449 1444 1442 1437 1432 1428 1424 1421 1420 1422 1422 1421 1420 1421 1422 1422 1421 1421 1422 1427 1433 1437 1440 1445 1450 1458 1464 1470 1473 1477 1482 1486 1490 1494 1497
1471 1464 1466 1467 1475 1477 1474 1484 1449 1450 1457 1457 1454 1451 1448 1443 1441 1439 1434 1434 1429 1425 1420 1415 1416 1419 1416 1414 1412 1413 1413 1418 1420 1419 1420 1425 1430 1435 1441 1447 1453 1458 1463 1470 1475 1481 1483 1487 1492
1462 1465 1466 1468 1475 1485 1457 1469 1438 1443 1446 1453 1453 1452 1449 1446 1442 1439 1434 1430 1429 1424 1421 1419 1414 1409 1407 1409 1409 1404 1407 1407 1409 1410 1409 1414 1419 1424 1427 1434 1440 1446 1453 1460 1465 1474 1478 1481 1486
1463 1472 1488 1486 1485 1469 1452 1461 1437 1448 1449 1450 1451 1452 1451 1450 1445 1440 1436 1429 1426 1422 1418 1418 1414 1413 1404 1404 1405 1402 1400 1401 1396 1398 1398 1400 1400 1407 1415 1422 1427 1434 1442 1451 1458 1466 1471 1475 1480
1466 1470 1486 1485 1474 1472 1462 1460 1445 1451 1451 1452 1454 1451 1449 1446 1444 1439 1434 1430 1427 1419 1418 1415 1412 1408 1408 1404 1404 1400 1397 1396 1394 1369 1382 1390 1397 1396 1402 1409 1417 1425 1433 1443 1450 1456 1463 1468 1474
1467 1472 1471 1477 1476 1479 1463 1449 1448 1449 1451 1452 1453 1452 1449 1444 1441 1438 1434 1430 1426 1424 1417 1412 1412 1406 1406 1403 1399 1406 1393 1396 1393 1395 1396 1385 1389 1385 1393 1402 1411 1419 1426 1435 1443 1448 1452 1458 1465
1463 1467 1477 1482 1481 1470 1455 1451 1449 1450 1451 1453 1452 1451 1447 1444 1440 1437 1435 1432 1427 1424 1420 1416 1413 1408 1405 1407 1399 1398 1399 1398 1392 1398 1397 1398 1399 1396 1394 1401 1410 1415 1421 1428 1435 1441 1446 1452 1456
1469 1471 1475 1480 1488 1478 1459 1453 1452 1449 1450 1452 1452 1449 1448 1444 1437 1433 1430 1429 1425 1422 1420 1417 1412 1410 1409 1409 1402 1397 1398 1396 1404 1399 1392 1398 1400 1399 1399 1404 1406 1410 1415 1422 1428 1434 1440 1444 1450
1463 1466 1471 1488 1488 1478 1478 1452 1448 1449 1450 1450 1447 1449 1447 1437 1433 1429 1424 1424 1422 1419 1416 1414 1413 1410 1409 1406 1401 1400 1404 1404 1395 1387 1396 1401 1399 1400 1404 1407 1408 1409 1413 1417 1422 1427 1433 1438 1443